#timestamp,LO_Frequency,Hit,StdDev 
1702321215.3,286046997.1,N
1702321235.1,286046997.2,N
1702321255.9,286046995.5,Y
1702321275.7,286046996.8,P
1702321295.6,286046997.7,P
1702321315.4,286046997.3,P
1702321335.2,286046996.9,Y
1702321355.1,286047001.2,P
1702321356.0,286047001.2,N
1702321375.8,286047000.6,N
1702321395.7,286047000.4,N
1702321415.5,286047000.0,N
1702321435.3,286047000.4,N
1702321455.2,286047000.9,N
1702321475.0,286046999.7,N
1702321475.9,286046999.7,N
1702321495.7,286047002.0,N
1702321515.6,286047001.6,N
1702321535.4,286047002.1,N
1702321555.3,286047004.4,Y
1702321575.1,286047002.3,P
1702321576.0,286047002.3,N
1702321595.8,286046999.7,N
1702321615.7,286047000.1,N
1702321635.5,286047000.5,N
1702321655.3,286047000.9,N
1702321675.2,286047001.0,N
1702321695.0,286046998.3,N
1702321695.9,286046998.3,N
1702321715.8,286047000.9,N
1702321735.6,286046998.6,N
1702321755.4,286046998.6,N
1702321775.3,286046998.6,N
1702321795.1,286046998.9,N
1702321815.9,286046996.5,N
1702321835.7,286047000.2,N
1702321855.5,286047000.5,N
1702321875.4,286047001.0,N
1702321895.2,286047000.8,N
1702321915.0,286047000.8,N
1702321915.9,286047000.8,N
1702321935.8,286047000.2,N
1702321955.6,286047002.4,N
1702321975.5,286046999.7,N
1702321995.3,286047002.8,N
1702322015.1,286047000.9,N
1702322035.9,286047002.6,N
1702322055.7,286047004.1,N
1702322075.5,286047002.9,N
1702322095.4,286047003.1,N
1702322115.2,286047003.4,N
1702322135.1,286047004.1,N
1702322136.0,286047004.1,N
1702322155.8,286047003.6,N
1702322175.6,286047003.7,N
1702322195.5,286047005.6,N
1702322215.3,286047005.0,N
1702322235.1,286047003.3,N
1702322255.9,286047003.0,N
1702322275.7,286047005.2,N
1702322295.6,286047005.3,N
1702322315.4,286047005.3,N
1702322335.2,286047005.5,N
1702322355.1,286047005.1,N
1702322356.0,286047005.1,N
1702322375.8,286047007.5,Y
1702322395.7,286047001.8,P
1702322415.5,286047003.6,P
1702322435.3,286047003.0,P
1702322455.2,286047002.9,Y
1702322475.9,286047002.7,P
1702322495.7,286047001.3,P
1702322515.6,286047004.1,P
1702322535.4,286047004.3,Y
1702322555.3,286047002.5,P
1702322575.1,286047002.2,P
1702322576.0,286047002.2,P
1702322595.8,286047001.4,Y
1702322615.7,286046996.7,P
1702322635.5,286046997.5,N
1702322655.3,286046995.9,N
1702322675.2,286046995.5,N
1702322695.0,286046995.3,N
1702322695.9,286046995.3,N
1702322715.8,286046997.9,N
1702322735.6,286046997.4,N
1702322755.4,286046996.6,N
1702322775.3,286047001.1,N
1702322795.1,286046998.6,N
1702322815.9,286047001.2,N
1702322835.7,286047002.8,N
1702322855.5,286047002.6,N
1702322875.4,286047000.9,N
1702322895.2,286046999.1,N
1702322915.0,286046999.6,N
1702322915.9,286046999.6,N
1702322935.8,286046998.3,N
1702322955.6,286046998.4,N
1702322975.5,286046998.6,N
1702322995.3,286047000.1,N
1702323015.1,286047001.6,N
1702323035.9,286047004.2,N
1702323055.7,286047001.3,N
1702323075.6,286047002.2,N
1702323095.4,286046999.8,N
1702323115.2,286047002.5,N
1702323135.1,286047002.8,N
1702323136.0,286047002.8,N
1702323155.8,286047002.8,N
1702323175.6,286046999.8,N
1702323195.5,286047002.0,N
1702323215.3,286047001.6,N
1702323235.2,286047002.8,N
1702323255.9,286047000.1,N
1702323275.7,286047000.3,N
1702323295.6,286046999.8,N
1702323315.4,286046999.8,N
1702323335.2,286047000.2,N
1702323355.1,286047001.2,N
1702323356.0,286047001.2,N
1702323375.8,286047000.7,N
1702323395.7,286047000.8,N
1702323415.5,286046999.7,N
1702323435.3,286047001.2,N
1702323455.2,286047000.5,N
1702323475.0,286047000.0,N
1702323475.9,286047000.0,N
1702323495.8,286047002.0,N
1702323515.6,286047002.8,N
1702323535.4,286047000.0,N
1702323555.3,286047002.6,N
1702323575.1,286047002.1,N
1702323595.9,286047002.5,N
1702323615.7,286047002.4,N
1702323635.5,286047000.2,N
1702323655.4,286047002.7,N
1702323675.2,286047002.6,N
1702323695.0,286047002.8,N
1702323695.9,286047002.8,N
1702323715.8,286046998.9,N
1702323735.6,286046999.6,N
1702323755.5,286046998.3,N
1702323775.3,286047001.1,N
1702323795.1,286047000.8,N
1702323815.9,286047000.8,N
1702323835.7,286047000.9,N
1702323855.6,286047000.5,N
1702323875.4,286046998.7,N
1702323895.2,286046998.5,N
1702323915.1,286047000.9,N
1702323916.0,286047000.9,N
1702323935.8,286047000.4,N
1702323955.7,286047002.7,N
1702323975.5,286047001.7,N
1702323995.3,286047003.6,N
1702324015.2,286047003.3,N
1702324035.0,286047003.1,N
1702324035.9,286047003.1,N
1702324055.8,286047005.9,Y
1702324075.6,286047001.3,P
1702324095.4,286047004.3,P
1702324115.3,286047003.9,N
1702324135.1,286047003.1,N
1702324155.9,286047002.9,N
1702324175.7,286047005.7,Y
1702324195.5,286046999.9,P
1702324215.4,286047000.0,N
1702324235.2,286047001.1,N
1702324255.1,286047000.9,N
1702324256.0,286047000.9,N
1702324275.8,286047000.6,N
1702324295.6,286046999.1,N
1702324315.5,286046998.4,N
1702324335.3,286047000.0,N
1702324355.2,286047000.8,N
1702324375.9,286046998.2,N
1702324395.7,286047000.4,N
1702324415.6,286047000.4,N
1702324435.4,286047002.1,N
1702324455.2,286047000.3,N
1702324475.1,286046998.2,N
1702324476.0,286046998.2,N
1702324495.8,286047000.3,N
1702324515.7,286047000.6,N
1702324535.5,286047002.5,N
1702324555.3,286047004.2,Y
1702324575.2,286047001.3,P
1702324595.0,286047003.9,P
1702324595.9,286047003.9,N
1702324615.7,286047002.1,N
1702324635.6,286047004.3,N
1702324655.4,286047002.0,N
1702324675.3,286047002.6,N
1702324695.1,286047000.7,N
1702324696.0,286047000.7,N
1702324715.8,286046999.8,N
1702324735.7,286047002.5,N
1702324755.5,286047002.4,N
1702324775.4,286047001.5,N
1702324795.2,286047002.1,N
